User: anonymous   Login
Location: ActonStarParty
(42.4766°N, 71.4538°W)
Time: 09:14:58
(UTC-04:00)
Language:

ITAMSAT 1 - Orbit

View from above orbital plane
View from above orbital plane
View from above satellite
View from above satellite

Ground track
Ground track

The orbit data is extracted from the following two-line orbital elements,

1 22826U 93061D   16237.54623076  .00000012  00000-0  22022-4 0  9996
2 22826  98.7601 194.3547 0010009 106.5442 253.6840 14.30290572195172
Epoch (UTC): 24 August 2016 13:06:34
Eccentricity: 0.0010009
inclination: 98.7601°
perigee height: 783 km
apogee height: 798 km
right ascension of ascending node: 194.3547°
argument of perigee: 106.5442°
revolutions per day: 14.30290572
mean anomaly at epoch: 253.6840°
orbit number at epoch: 19517

The dashed part of the orbit path shows where the satellite is in the earth's shadow,  

DLR